�ϑ��N����,2017/9/29,,,
�ϑ���,���J����,,,
�ϑ��n�_,24,,,
���x�v�ԍ�,39,,,
,,,,
����,�C��,����,����,���l
9:30:00,18,0,0,���A
9:31:00,18,0,0,
9:32:00,18,0,0,
9:33:00,18.1,8,1,
9:34:00,18,0,0,
9:35:00,18.1,8,1,
9:36:00,18.1,0,0,
9:37:00,18.1,1,1,
9:38:00,18.1,0,0,
9:39:00,18.3,0,0,
9:40:00,18.5,0,0,
9:41:00,18.6,0,0,
9:42:00,18.7,7,1,
9:43:00,18.7,0,0,
9:44:00,18.7,7,1,
9:45:00,18.8,8,1,
9:46:00,18.8,0,0,
9:47:00,18.8,0,0,
9:48:00,18.8,0,0,
9:49:00,18.9,7,1,
9:50:00,19,7,1,
9:51:00,19.1,0,0,
9:52:00,19.3,0,0,
9:53:00,19.4,1,1,
9:54:00,19,0,0,
9:55:00,19,0,0,
9:56:00,19.2,0,0,
9:57:00,19.4,0,0,
9:58:00,19.6,0,0,
9:59:00,19.5,8,2,
10:00:00,19.5,7,1,
10:01:00,19.5,7,1,
10:02:00,19.6,0,0,
10:03:00,19.7,0,0,
10:04:00,19.7,0,0,
10:05:00,19.7,7,2,
10:06:00,19.8,0,0,
10:07:00,19.6,0,0,
10:08:00,19.8,7,1,
10:09:00,19.9,7,1,
10:10:00,19.9,0,0,
10:11:00,19.8,0,0,
10:12:00,19.9,7,1,
10:13:00,19.9,8,1,
10:14:00,19.8,0,0,
10:15:00,19.9,0,0,
10:16:00,20,0,0,
10:17:00,20,0,0,
10:18:00,20.2,8,1,
10:19:00,20.3,0,0,
10:20:00,20.5,0,0,
10:21:00,20.6,0,0,
10:22:00,20.6,8,1,
10:23:00,20.7,0,0,
10:24:00,20.7,4,1,
10:25:00,20.1,0,0,
10:26:00,20.2,0,0,
10:27:00,20.4,0,0,
10:28:00,20.8,0,0,
10:29:00,20.8,4,1,
10:30:00,20.8,0,0,
10:31:00,21,1,1,
10:32:00,20.9,0,0,
10:33:00,21,7,1,
10:34:00,21.1,1,1,
10:35:00,21.2,0,0,
10:36:00,21.3,0,0,
10:37:00,21.4,0,0,
10:38:00,21.3,0,0,
10:39:00,21.3,0,0,
10:40:00,21.6,0,0,
10:41:00,21.7,8,1,
10:42:00,21.8,0,0,
10:43:00,21.8,0,0,
10:44:00,21.8,0,0,
10:45:00,21.6,0,0,
10:46:00,21.8,0,0,
10:47:00,21.8,0,0,
10:48:00,21.8,0,0,
10:49:00,21.6,0,0,
10:50:00,21.8,0,0,
10:51:00,22,0,0,
10:52:00,22.1,1,1,
10:53:00,22.1,0,0,
10:54:00,22.2,0,0,
10:55:00,22.2,8,1,
10:56:00,22.2,0,0,
10:57:00,22.3,0,0,
10:58:00,22.5,0,0,
10:59:00,22.8,0,0,
11:00:00,22.8,0,0,
11:01:00,22.5,4,1,
11:02:00,22.3,0,0,
11:03:00,22.2,0,0,
11:04:00,22.1,0,0,
11:05:00,22,0,0,
11:06:00,22,7,1,
11:07:00,22,0,0,
11:08:00,22,0,0,
11:09:00,22.1,0,0,
11:10:00,22.8,0,0,
11:11:00,22.8,0,0,
11:12:00,22.9,0,0,
11:13:00,22.8,0,0,
11:14:00,22.8,0,0,
11:15:00,22.9,4,1,
11:16:00,22.9,0,0,
11:17:00,22.6,4,1,
11:18:00,22.6,4,2,
11:19:00,22.4,0,0,
11:20:00,22.3,0,0,
11:21:00,22.6,0,0,
11:22:00,23.3,8,1,
11:23:00,23.3,0,0,
11:24:00,23.4,8,2,
11:25:00,23.2,0,0,
11:26:00,23.8,0,0,
11:27:00,23.5,0,0,
11:28:00,23.3,0,0,
11:29:00,23.4,8,1,
11:30:00,23.8,0,0,
